Location: Rio Negrinho
(26.2394°S, 49.4999°W)
Time: 20:01:04
(UTC+00:00)

Envisat - Pass Details

Date: 01 August 2021
Orbit: 764 x 766 km, 98.2° (Epoch: 17 September)

Event Time Altitude Azimuth Distance (km) Brightness Sun altitude
Rises 08:22:48 0° 357° (N) 3,212 6.3 -21.3°
Reaches altitude 10° 08:25:12 10° 351° (N) 2,294 5.5 -20.7°
Maximum altitude 08:29:59 43° 279° (W) 1,073 3.3 -19.7°
Enters shadow 08:31:13 36° 244° (WSW) 1,197 3.5 -19.4°
